Location: Kimberly
(42.5380°N, 114.3640°W)
Time: 23:18:50
(UTC-06:00)

X-37B - Pass Details

Date: 05 August 2021
Orbit: 381 x 393 km, 45.0° (Epoch: 29 August)

Event Time Altitude Azimuth Distance (km) Brightness Sun altitude
Exits shadow 04:34:08 86° 248° (WSW) 384 0.4 -18.8°
Maximum altitude 04:34:11 90° 190° (S) 383 0.4 -18.8°
Drops below altitude 10° 04:37:20 10° 73° (ENE) 1,395 4.3 -18.4°
Sets 04:39:24 0° 73° (ENE) 2,249 5.5 -18.2°
